EW8775 Weather Reports


Display with metric or nautical units.
time (UTC)temp
F
wind
direction
speed
MPH
gust
MPH
rain 1hr
in
rain 24hr
in
rain mn
in
humidity
%
barometer
mb
20260905130017 69 90 1.0 8.0 0.00 0.00 0.00 30 1016.4
20260905123057 70 90 1.0 10.0 0.00 0.00 0.00 28 1016.4
20260905120017 71 113 1.0 10.0 0.00 0.00 0.00 26 1016.8
20260905113017 71 113 2.0 11.0 0.00 0.00 0.00 26 1016.9
20260905110017 73 90 3.0 12.0 0.00 0.00 0.00 24 1017.1
20260905103037 72 113 2.0 11.0 0.00 0.00 0.00 27 1016.7
20260905100017 73 113 4.0 13.0 0.00 0.00 0.00 28 1016.7
20260905093057 73 113 4.0 15.0 0.00 0.00 0.00 29 1016.3
20260905090057 73 113 4.0 13.0 0.00 0.00 0.00 32 1016.0
20260905083016 73 113 3.0 12.0 0.00 0.00 0.00 33 1015.6
20260905080017 73 113 2.0 10.0 0.00 0.00 0.00 32 1015.3
20260905073017 74 180 1.0 8.0 0.00 0.00 0.00 31 1015.2
20260905070016 75 135 3.0 13.0 0.00 0.00 0.00 31 1015.1
20260905063016 76 158 3.0 11.0 0.00 0.00 0.00 31 1014.6
20260905060056 77 135 3.0 14.0 0.00 0.00 0.00 29 1014.1
20260905053017 78 135 4.0 12.0 0.00 0.00 0.00 28 1013.7
20260905050017 78 113 2.0 10.0 0.00 0.00 0.00 27 1013.3
20260905043017 78 113 3.0 12.0 0.00 0.00 0.00 27 1012.4
20260905040017 79 135 5.0 14.0 0.00 0.00 0.00 26 1012.1
20260905033017 79 135 5.0 16.0 0.00 0.00 0.00 26 1011.4
20260905030057 79 135 3.0 13.0 0.00 0.00 0.00 29 1011.0
20260905023022 80 135 3.0 12.0 0.00 0.00 0.00 28 1010.9
20260905020017 81 158 3.0 12.0 0.00 0.00 0.00 28 1011.3
20260905013017 82 158 4.0 12.0 0.00 0.00 0.00 28 1011.6
20260905010017 83 158 4.0 14.0 0.00 0.00 0.00 28 1011.6
20260905003016 84 180 3.0 10.0 0.00 0.00 0.00 25 1011.6
20260905000017 85 180 4.0 14.0 0.00 0.00 0.00 23 1011.9
20260904233016 86 180 3.0 12.0 0.00 0.00 0.00 19 1011.7
20260904230016 86 180 3.0 13.0 0.00 0.00 0.00 20 1012.1
20260904223017 86 180 5.0 13.0 0.00 0.00 0.00 19 1012.3
20260904220016 85 180 5.0 13.0 0.00 0.00 0.00 19 1012.6
20260904213016 85 180 3.0 12.0 0.00 0.00 0.00 21 1013.2
20260904210056 84 158 4.0 15.0 0.00 0.00 0.00 22 1013.3
20260904203016 83 180 6.0 17.0 0.00 0.00 0.00 23 1013.7
20260904200016 82 180 6.0 19.0 0.00 0.00 0.00 23 1013.8
20260904193016 81 180 6.0 19.0 0.00 0.00 0.00 27 1014.2
20260904190016 80 180 6.0 14.0 0.00 0.00 0.00 28 1014.7
20260904183016 79 180 5.0 19.0 0.00 0.00 0.00 29 1015.2
20260904180017 78 180 5.0 16.0 0.00 0.00 0.00 31 1015.4
20260904173016 78 180 5.0 14.0 0.00 0.00 0.00 27 1015.1
20260904170015 76 180 5.0 20.0 0.00 0.00 0.00 30 1015.1
20260904163016 74 158 2.0 15.0 0.00 0.00 0.00 31 1014.8
20260904160115 69 203 1.0 8.0 0.00 0.00 0.00 43 1014.0
20260904153016 67 0.0 5.0 0.00 0.00 0.00 47 1014.1
20260904150057 66 0.0 0.0 0.00 0.00 0.00 38 1013.3
20260904143057 65 0.0 3.0 0.00 0.00 0.00 30 1012.9
20260904140017 66 113 1.0 6.0 0.00 0.00 0.00 33 1013.6
20260904133017 69 113 2.0 14.0 0.00 0.00 0.00 26 1013.7